Tracking 30166 objects as of 22-Jan-2025
HD Live streaming from Space Station
objects crossing your sky now

COSMOS 2303

Track COSMOS 2303 now!
10-day predictions
COSMOS 2303 is classified as:


NORAD ID: 23445
Int'l Code: 1994-086E
Perigee: 1,419.8 km
Apogee: 1,435.9 km
Inclination: 82.6 °
Period: 114.2 minutes
Semi major axis: 7798 km
RCS: 1.1077 m2 (large)
Launch date: December 26, 1994
Source: Commonwealth of Independent States (former USSR) (CIS)
Launch site: PLESETSK MISSILE AND SPACE COMPLEX (PKMTR)
Your satellite tracking list
Your tracking list is empty




NASA's NSSDC Master Catalog

Two Line Element Set (TLE):
1 23445U 94086E   25021.88549608  .00000030  00000-0  10941-3 0  9994
2 23445  82.5776 311.3684 0010343 285.4639 139.9444 12.60543779383562
Source of the keplerian elements: AFSPC